[[{"header":{"parameterUnit":"m.s-1","parameterCategory":1,"la1":30.2992,"la2":30.254,"lo1":-89.0895,"lo2":-89.0443,"dy":0.0025,"dx":0.0025,"nx":19,"ny":19,"refTime":"2026-03-18T03:00:00:Z","depth":0,"parameterNumber":2,"parameterNumberName":"U-component_of_WINDS"},"data":[0,0,0,-2.0945,-2.0946,-2.0974,-2.0974,-2.1041,-2.1042,0,0,0,0,0,0,0,0,0,0,0,-2.0955,-2.0956,-2.0945,-2.0946,-2.0974,-2.0974,-2.1041,-2.1042,0,0,0,0,0,0,0,0,0,0,0,-2.0954,-2.0955,-2.0957,-2.0947,-2.0974,-2.0974,-2.1041,-2.1009,0,0,0,0,0,0,0,0,0,0,-2.0977,-2.1002,-2.0955,-2.0957,-2.0947,-2.0974,-2.0974,-2.1007,-2.1011,-2.1042,0,-2.1072,0,-2.1059,-2.1049,-2.1049,0,0,0,-2.0934,-2.0999,-2.099,-2.0957,-2.0947,-2.0974,-2.0958,-2.1009,-2.1014,-2.1048,-2.1073,-2.1075,-2.106,-2.1049,-2.105,-2.1267,-2.1269,0,0,-2.0932,-2.0969,-2.0987,-2.0994,-2.0989,-2.0957,-2.0959,-2.1011,-2.1042,-2.1073,-2.1076,-2.1061,-2.105,-2.1051,-2.1266,-2.1268,0,0,0,-2.0936,-2.0969,-2.0958,-2.0992,-2.0995,-2.0958,-2.096,-2.104,-2.1033,-2.1076,-2.1062,-2.1051,-2.1052,-2.1264,-2.1267,-2.1383,0,0,0,-2.0935,-2.0971,-2.0958,-2.0981,-2.0994,-2.1017,-2.0988,-2.103,-2.1034,-2.1061,-2.1051,-2.1053,-2.1262,-2.1265,-2.1376,-2.1432,0,0,0,-2.0947,-2.0972,-2.0982,-2.0983,-2.0996,-2.1015,-2.1011,-2.103,-2.1026,-2.1049,-2.1053,-2.1261,-2.1265,-2.1369,-2.1422,-2.1503,0,0,0,-2.0971,-2.1083,-2.0984,-2.1105,-2.0996,-2.1086,-2.101,-2.1076,-2.1109,-2.1051,-2.1262,-2.1266,-2.1367,-2.1415,-2.1496,-2.1579,-2.1616,0,0,-2.1134,-2.1104,-2.1173,-2.1085,-2.1202,-2.1079,-2.1213,-2.1209,-2.1178,-2.124,-2.1245,-2.1378,-2.1421,-2.1501,-2.1807,-2.1837,0,0,0,-2.1237,-2.1287,-2.131,-2.1343,-2.1342,-2.1348,-2.1319,-2.1318,-2.1369,-2.1217,-2.1426,-2.1451,-2.1497,-2.1535,-2.156,-2.1599,-2.1285,-2.1284,-2.1284,-2.1522,-2.1476,-2.1587,-2.1546,-2.1579,-2.155,-2.1574,-2.1568,-2.1511,-2.1562,-2.1581,-2.1772,-2.1818,-2.1836,-2.1877,-2.1618,-2.1619,-2.1619,-2.162,-2.1759,-2.1824,-2.1747,-2.1827,-2.178,-2.1848,-2.1825,-2.1783,-2.1842,-2.1753,-2.1791,-2.1701,-2.1871,-2.1904,-2.1628,-2.1626,-2.1625,-2.1625,-2.1624,-2.1942,-2.1966,-2.1962,-2.2008,-2.2049,-2.2003,-2.2063,-2.2017,-2.1974,-2.2011,-2.2028,-2.2026,-2.2021,-2.2022,-2.2023,-2.2023,-2.2024,-2.2024,-2.2025,-2.2135,-2.2127,-2.2183,-2.2193,-2.221,-2.2227,-2.2201,-2.2217,-2.2224,-2.2186,-2.2186,-2.2127,-2.1894,-2.1839,-2.2035,-2.2033,-2.2032,-2.2031,-2.203,-2.2397,-2.233,-2.2416,-2.2434,-2.2445,-2.2491,-2.243,-2.2469,-2.2475,-2.2508,-2.2441,-2.2275,-2.2243,-2.2222,-2.2176,-2.2448,-2.2448,-2.2448,-2.2448,-2.2554,-2.2532,-2.2611,-2.2643,-2.2668,-2.2623,-2.2727,-2.2709,-2.268,-2.2682,-2.2636,-2.257,-2.2551,-2.2529,-2.2502,-2.2459,-2.2796,-2.2797,-2.2797,-2.2714,-2.2693,-2.2788,-2.2758,-2.2763,-2.2771,-2.2867,-2.291,-2.2863,-2.281,-2.2684,-2.267,-2.2562,-2.2529,-2.2475,-2.2434,-2.2353,0,0]},{"header":{"parameterUnit":"m.s-1","parameterCategory":1,"la1":30.2992,"la2":30.254,"lo1":-89.0895,"lo2":-89.0443,"dy":0.0025,"dx":0.0025,"nx":19,"ny":19,"refTime":"2026-03-18T03:00:00:Z","depth":0,"parameterNumber":3,"parameterNumberName":"V-component_of_WINDS"},"data":[0,0,0,1.1853,1.1851,1.176,1.176,1.1642,1.1641,0,0,0,0,0,0,0,0,0,0,0,1.188,1.188,1.1853,1.185,1.176,1.176,1.1642,1.1641,0,0,0,0,0,0,0,0,0,0,0,1.1881,1.188,1.1879,1.185,1.176,1.176,1.1643,1.1711,0,0,0,0,0,0,0,0,0,0,1.1799,1.1826,1.188,1.1879,1.185,1.176,1.1759,1.1714,1.1707,1.1683,0,1.1664,0,1.1651,1.1633,1.1633,0,0,0,1.1849,1.1832,1.1808,1.1879,1.1849,1.176,1.18,1.171,1.1701,1.1673,1.1663,1.1658,1.1649,1.1633,1.1632,1.1507,1.1507,0,0,1.1854,1.1864,1.1814,1.1802,1.1818,1.1803,1.1798,1.1705,1.1693,1.1662,1.1656,1.1647,1.1632,1.1631,1.1508,1.1507,0,0,0,1.1869,1.1867,1.1845,1.1807,1.1791,1.1801,1.1794,1.1697,1.1689,1.1654,1.1646,1.1631,1.163,1.1508,1.1507,1.1492,0,0,0,1.1872,1.1877,1.1847,1.1852,1.1793,1.1743,1.1789,1.1696,1.1685,1.1647,1.1631,1.1629,1.1509,1.1508,1.1493,1.1481,0,0,0,1.1886,1.1878,1.1866,1.1853,1.1815,1.1745,1.1731,1.1693,1.168,1.1633,1.1628,1.1509,1.1508,1.1495,1.1484,1.1451,0,0,0,1.1902,1.1852,1.1866,1.1806,1.1816,1.1737,1.1732,1.1672,1.163,1.1631,1.1509,1.1507,1.1495,1.1485,1.1452,1.1423,1.1413,0,0,1.1844,1.1845,1.1809,1.1819,1.1741,1.175,1.1669,1.162,1.1605,1.154,1.1537,1.1493,1.1484,1.1451,1.1355,1.1347,0,0,0,1.1793,1.1767,1.1745,1.1707,1.167,1.1637,1.16,1.1582,1.1527,1.1575,1.1473,1.1467,1.1447,1.1433,1.1426,1.1407,1.1502,1.1502,1.1502,1.1722,1.1709,1.1648,1.1624,1.1587,1.1551,1.1519,1.1489,1.1484,1.1461,1.144,1.1384,1.1367,1.1362,1.1343,1.1426,1.1426,1.1426,1.1426,1.1632,1.1593,1.1592,1.1532,1.1518,1.1467,1.1431,1.143,1.1379,1.1398,1.1379,1.1399,1.1353,1.1336,1.1424,1.1424,1.1425,1.1425,1.1425,1.1582,1.1561,1.1542,1.1487,1.1445,1.1423,1.1375,1.1364,1.1353,1.1335,1.1312,1.1312,1.1309,1.1326,1.1326,1.1325,1.1325,1.1325,1.1325,1.1535,1.1515,1.1477,1.1437,1.1411,1.1377,1.1342,1.1316,1.1284,1.1279,1.1279,1.1276,1.1353,1.1371,1.1322,1.1322,1.1323,1.1323,1.1323,1.1445,1.1465,1.1406,1.1381,1.1332,1.1292,1.128,1.1229,1.1206,1.1182,1.1185,1.1244,1.1243,1.1249,1.1263,1.1189,1.1189,1.1189,1.1189,1.1401,1.1401,1.1339,1.13,1.126,1.1245,1.1177,1.115,1.1125,1.1109,1.1119,1.1139,1.1145,1.114,1.1148,1.1162,1.1063,1.1063,1.1063,1.1343,1.134,1.1285,1.1263,1.1225,1.1192,1.1128,1.1081,1.1057,1.1058,1.1097,1.1102,1.1134,1.1145,1.1143,1.1156,1.118,0,0]}]]